DAL435 PHLI-KLAX

Flight info

Callsign DAL435
Flight time N/A
Altitude 31000
Route PHLI DCT LIH V15 ZIKAB DCT CLUTS R465 CIVIT/N0452F330 R585
Aircraft A321/M-V/N

Departure

Time 2026-04-12 05:41
Airport Lihue Airport (PHLI)

Arrival

Time N/A
Airport Los Angeles International Airport (KLAX)
Time Latitude Longitude Altitude Speed Heading
2026-04-12 05:29 21.97916 -159.34680 153 ft 0 kts 316°
2026-04-12 05:33 21.97908 -159.34672 153 ft 4 kts 316°
2026-04-12 05:33 21.97888 -159.34654 153 ft 4 kts 339°
2026-04-12 05:34 21.97862 -159.34649 153 ft 4 kts
2026-04-12 05:34 21.97837 -159.34655 153 ft 4 kts 32°
2026-04-12 05:34 21.97817 -159.34674 153 ft 4 kts 39°
2026-04-12 05:34 21.97807 -159.34682 153 ft 1 kts 30°
2026-04-12 05:35 21.97806 -159.34682 153 ft 0 kts 30°
2026-04-12 05:37 21.97807 -159.34682 153 ft 1 kts 26°
2026-04-12 05:37 21.97819 -159.34705 153 ft 6 kts 251°
2026-04-12 05:37 21.97779 -159.34731 153 ft 7 kts 213°
2026-04-12 05:37 21.97772 -159.34737 154 ft 0 kts 217°
2026-04-12 05:38 21.97747 -159.34760 153 ft 12 kts 223°
2026-04-12 05:38 21.97675 -159.34838 153 ft 15 kts 226°
2026-04-12 05:39 21.97595 -159.34872 153 ft 12 kts 157°
2026-04-12 05:39 21.97538 -159.34821 154 ft 7 kts 143°
2026-04-12 05:39 21.97534 -159.34818 154 ft 0 kts 147°
2026-04-12 05:39 21.97505 -159.34827 154 ft 10 kts 211°
2026-04-12 05:40 21.97432 -159.34909 153 ft 20 kts 225°
2026-04-12 05:40 21.97347 -159.34928 152 ft 14 kts 144°
2026-04-12 05:40 21.97337 -159.34839 152 ft 12 kts 49°
2026-04-12 05:40 21.97346 -159.34828 152 ft 10 kts 47°
2026-04-12 05:41 21.97603 -159.34553 143 ft 92 kts 45°
2026-04-12 05:41 21.98220 -159.33888 115 ft 154 kts 46°
2026-04-12 05:41 21.98983 -159.33030 719 ft 157 kts 47°
2026-04-12 05:41 21.99745 -159.32185 1421 ft 152 kts 46°
2026-04-12 05:42 22.00496 -159.31379 1765 ft 156 kts 46°
2026-04-12 05:42 22.01230 -159.30455 1884 ft 170 kts 65°
2026-04-12 05:42 22.01385 -159.29175 1996 ft 183 kts 107°
2026-04-12 05:43 21.99768 -159.26835 2300 ft 211 kts 131°
2026-04-12 05:43 21.98777 -159.25587 2421 ft 228 kts 131°
2026-04-12 05:43 21.97712 -159.24243 2532 ft 251 kts 131°
2026-04-12 05:43 21.96532 -159.22750 2904 ft 263 kts 131°
2026-04-12 05:44 21.95332 -159.21229 3470 ft 269 kts 131°
2026-04-12 05:44 21.94130 -159.19701 4082 ft 272 kts 132°
2026-04-12 05:44 21.92899 -159.18134 4690 ft 275 kts 132°
2026-04-12 05:44 21.91659 -159.16556 5293 ft 278 kts 132°
2026-04-12 05:45 21.90405 -159.14963 5882 ft 281 kts 132°
2026-04-12 05:45 21.89134 -159.13354 6443 ft 283 kts 133°
2026-04-12 05:45 21.87851 -159.11732 7002 ft 286 kts 133°
2026-04-12 05:45 21.86552 -159.10089 7546 ft 289 kts 133°
2026-04-12 05:46 21.85241 -159.08431 8071 ft 292 kts 133°
2026-04-12 05:46 21.83918 -159.06756 8565 ft 295 kts 133°
2026-04-12 05:46 21.82581 -159.05069 9044 ft 298 kts 133°
2026-04-12 05:46 21.81226 -159.03366 9511 ft 301 kts 133°
2026-04-12 05:47 21.79860 -159.01644 9979 ft 304 kts 133°
2026-04-12 05:47 21.78467 -158.99880 10178 ft 318 kts 133°
2026-04-12 05:47 21.77143 -158.97900 10300 ft 336 kts 120°
2026-04-12 05:47 21.76279 -158.95501 10443 ft 353 kts 104°
2026-04-12 05:48 21.76033 -158.92823 10567 ft 369 kts 88°
2026-04-12 05:48 21.76502 -158.90072 10804 ft 379 kts 71°
2026-04-12 05:48 21.77339 -158.87367 11202 ft 384 kts 71°
2026-04-12 05:48 21.78183 -158.84627 11649 ft 387 kts 71°
2026-04-12 05:49 21.79033 -158.81858 12083 ft 391 kts 71°
2026-04-12 05:49 21.79890 -158.79064 12540 ft 395 kts 71°
2026-04-12 05:49 21.80750 -158.76248 13006 ft 398 kts 71°
2026-04-12 05:49 21.81613 -158.73412 13479 ft 400 kts 71°
2026-04-12 05:50 21.82485 -158.70556 13932 ft 403 kts 72°
2026-04-12 05:50 21.83365 -158.67677 14379 ft 406 kts 72°
2026-04-12 05:50 21.84245 -158.64798 14813 ft 408 kts 72°
2026-04-12 05:50 21.85125 -158.61913 15214 ft 412 kts 72°
2026-04-12 05:51 21.86020 -158.58973 15625 ft 414 kts 72°
2026-04-12 05:51 21.86921 -158.56020 16024 ft 417 kts 72°
2026-04-12 05:51 21.87826 -158.53048 16419 ft 419 kts 72°
2026-04-12 05:51 21.88734 -158.50063 16806 ft 421 kts 72°
2026-04-12 05:52 21.89649 -158.47054 17175 ft 423 kts 72°
2026-04-12 05:52 21.90565 -158.44042 17514 ft 426 kts 72°
2026-04-12 05:52 21.91490 -158.40993 17862 ft 428 kts 72°
2026-04-12 05:52 21.92415 -158.37940 18211 ft 431 kts 72°
2026-04-12 05:53 21.93347 -158.34868 18539 ft 433 kts 72°
2026-04-12 05:53 21.94285 -158.31787 18870 ft 435 kts 72°
2026-04-12 05:53 21.95230 -158.28676 19179 ft 437 kts 72°
2026-04-12 05:53 21.96175 -158.25561 19490 ft 439 kts 72°
2026-04-12 05:54 21.97122 -158.22423 19801 ft 441 kts 73°
2026-04-12 05:54 21.98071 -158.19270 20097 ft 443 kts 73°
2026-04-12 05:54 21.99024 -158.16106 20379 ft 446 kts 73°
2026-04-12 05:54 21.99982 -158.12922 20686 ft 448 kts 73°
2026-04-12 05:55 22.00946 -158.09720 20979 ft 450 kts 72°
2026-04-12 05:55 22.01915 -158.06506 21266 ft 452 kts 73°
2026-04-12 05:55 22.02887 -158.03280 21530 ft 454 kts 72°
2026-04-12 05:55 22.03860 -158.00046 21801 ft 456 kts 73°
2026-04-12 05:56 22.04844 -157.96776 22079 ft 458 kts 73°
2026-04-12 05:56 22.05828 -157.93507 22356 ft 460 kts 73°
2026-04-12 05:56 22.06815 -157.90229 22600 ft 462 kts 73°
2026-04-12 05:56 22.07805 -157.86932 22864 ft 464 kts 73°
2026-04-12 05:57 22.08785 -157.83654 23125 ft 465 kts 73°
2026-04-12 05:57 22.09793 -157.80282 23396 ft 467 kts 73°
2026-04-12 05:57 22.10777 -157.76985 23625 ft 469 kts 73°
2026-04-12 05:57 22.11777 -157.73638 23855 ft 471 kts 73°
2026-04-12 05:58 22.12783 -157.70271 24100 ft 473 kts 73°
2026-04-12 05:58 22.13793 -157.66882 24336 ft 474 kts 73°
2026-04-12 05:58 22.14803 -157.63498 24553 ft 476 kts 73°
2026-04-12 05:58 22.15824 -157.60080 24783 ft 478 kts 73°
2026-04-12 05:59 22.16846 -157.56660 24974 ft 480 kts 73°
2026-04-12 05:59 22.17871 -157.53221 25179 ft 482 kts 73°
2026-04-12 05:59 22.18898 -157.49768 25394 ft 484 kts 73°
2026-04-12 05:59 22.19924 -157.46308 25609 ft 486 kts 73°
2026-04-12 06:00 22.20954 -157.42825 25821 ft 488 kts 73°
2026-04-12 06:00 22.21983 -157.39335 26015 ft 489 kts 73°
2026-04-12 06:00 22.23019 -157.35831 26210 ft 491 kts 73°
2026-04-12 06:00 22.24061 -157.32306 26390 ft 493 kts 73°
2026-04-12 06:01 22.25107 -157.28764 26599 ft 495 kts 73°
2026-04-12 06:01 22.26153 -157.25225 26785 ft 497 kts 73°
2026-04-12 06:01 22.27206 -157.21660 26980 ft 498 kts 73°
2026-04-12 06:01 22.28263 -157.18082 27165 ft 500 kts 73°
2026-04-12 06:02 22.29320 -157.14504 27333 ft 502 kts 73°
2026-04-12 06:02 22.30362 -157.10955 27518 ft 503 kts 73°
2026-04-12 06:02 22.31430 -157.07303 27753 ft 503 kts 73°
2026-04-12 06:02 22.32469 -157.03748 27931 ft 504 kts 73°
2026-04-12 06:03 22.33531 -157.00131 28083 ft 506 kts 73°
2026-04-12 06:03 22.34597 -156.96508 28244 ft 507 kts 73°
2026-04-12 06:03 22.35667 -156.92871 28415 ft 509 kts 73°
2026-04-12 06:03 22.36739 -156.89220 28575 ft 510 kts 73°
2026-04-12 06:04 22.37809 -156.85562 28753 ft 511 kts 73°
2026-04-12 06:04 22.38877 -156.81900 28912 ft 513 kts 73°
2026-04-12 06:04 22.39952 -156.78216 29080 ft 514 kts 73°
2026-04-12 06:04 22.41027 -156.74534 29230 ft 516 kts 73°
2026-04-12 06:05 22.42108 -156.70829 29440 ft 516 kts 74°
2026-04-12 06:05 22.43184 -156.67126 29667 ft 516 kts 74°
2026-04-12 06:05 22.44253 -156.63442 29896 ft 515 kts 74°
2026-04-12 06:05 22.45326 -156.59751 30122 ft 515 kts 74°
2026-04-12 06:06 22.46401 -156.56054 30313 ft 515 kts 73°
2026-04-12 06:06 22.47473 -156.52366 30510 ft 515 kts 73°
2026-04-12 06:06 22.48542 -156.48673 30719 ft 515 kts 73°
2026-04-12 06:06 22.49607 -156.44978 30920 ft 515 kts 73°
2026-04-12 06:07 22.50669 -156.41287 31036 ft 512 kts 73°
2026-04-12 06:07 22.51718 -156.37639 31060 ft 505 kts 73°
2026-04-12 06:07 22.53805 -156.30421 31067 ft 502 kts 73°
2026-04-12 06:08 22.55890 -156.23209 31062 ft 501 kts 73°
2026-04-12 06:08 22.57950 -156.16014 31053 ft 501 kts 73°
2026-04-12 06:09 22.60014 -156.08800 31046 ft 501 kts 73°
2026-04-12 06:09 22.62074 -156.01594 31046 ft 501 kts 73°
2026-04-12 06:10 22.64128 -155.94393 31108 ft 500 kts 73°
2026-04-12 06:10 22.66175 -155.87215 31122 ft 499 kts 73°
2026-04-12 06:11 22.68222 -155.80027 31122 ft 499 kts 73°
2026-04-12 06:11 22.70271 -155.72849 31123 ft 499 kts 73°
2026-04-12 06:12 22.72300 -155.65706 31120 ft 500 kts 73°
2026-04-12 06:12 22.74335 -155.58498 31119 ft 502 kts 72°
2026-04-12 06:13 22.76388 -155.51242 31119 ft 504 kts 72°
2026-04-12 06:13 22.78443 -155.43955 31073 ft 507 kts 72°
2026-04-12 06:14 22.80506 -155.36639 31038 ft 507 kts 72°
2026-04-12 06:14 22.82569 -155.29329 31034 ft 508 kts 72°
2026-04-12 06:15 22.84622 -155.21989 31036 ft 508 kts 73°
2026-04-12 06:15 22.86666 -155.14658 31040 ft 508 kts 73°
2026-04-12 06:16 22.88718 -155.07321 31044 ft 508 kts 73°
2026-04-12 06:16 22.90766 -154.99990 31048 ft 508 kts 73°
2026-04-12 06:17 22.92799 -154.92669 31052 ft 507 kts 73°
2026-04-12 06:17 22.94837 -154.85339 31051 ft 507 kts 73°
2026-04-12 06:18 22.96527 -154.79249 31051 ft 507 kts 73°
2026-04-12 06:18 22.98872 -154.70741 31051 ft 506 kts 73°
2026-04-12 06:19 23.01483 -154.63683 31051 ft 504 kts 58°
2026-04-12 06:19 23.04667 -154.58385 31047 ft 503 kts 54°
2026-04-12 06:20 23.08567 -154.52006 31049 ft 504 kts 54°
2026-04-12 06:20 23.12424 -154.45651 31050 ft 504 kts 54°
2026-04-12 06:21 23.16249 -154.39342 31053 ft 503 kts 54°
2026-04-12 06:21 23.20112 -154.32997 31051 ft 503 kts 54°
2026-04-12 06:22 23.23968 -154.26647 31050 ft 503 kts 54°
2026-04-12 06:22 23.27808 -154.20300 31051 ft 503 kts 55°
2026-04-12 06:23 23.31658 -154.13931 31045 ft 503 kts 55°
2026-04-12 06:23 23.35506 -154.07568 31043 ft 504 kts 55°
2026-04-12 06:24 23.39360 -154.01189 31043 ft 504 kts 55°
2026-04-12 06:24 23.43198 -153.94822 31049 ft 504 kts 55°
2026-04-12 06:25 23.47038 -153.88438 31053 ft 503 kts 55°
2026-04-12 06:25 23.50868 -153.82065 31048 ft 503 kts 55°
2026-04-12 06:26 23.54705 -153.75677 31049 ft 503 kts 55°
2026-04-12 06:26 23.58530 -153.69296 31047 ft 503 kts 55°
2026-04-12 06:27 23.62354 -153.62911 31043 ft 503 kts 55°
2026-04-12 06:27 23.66171 -153.56525 31043 ft 503 kts 55°
2026-04-12 06:28 23.69998 -153.50122 31047 ft 503 kts 55°
2026-04-12 06:28 23.73786 -153.43777 31052 ft 503 kts 55°
2026-04-12 06:29 23.77602 -153.37381 31051 ft 502 kts 55°
2026-04-12 06:29 23.81425 -153.30983 31049 ft 502 kts 55°
2026-04-12 06:30 23.85238 -153.24606 31051 ft 502 kts 55°
2026-04-12 06:30 23.89063 -153.18218 31050 ft 502 kts 55°
2026-04-12 06:31 23.92877 -153.11828 31048 ft 502 kts 55°
2026-04-12 06:31 23.96683 -153.05441 31049 ft 501 kts 55°
2026-04-12 06:32 24.00484 -152.99050 31047 ft 501 kts 56°
2026-04-12 06:32 24.04282 -152.92662 31042 ft 501 kts 55°
2026-04-12 06:33 24.08084 -152.86262 31039 ft 501 kts 55°
2026-04-12 06:33 24.11880 -152.79863 31046 ft 502 kts 56°
2026-04-12 06:34 24.15674 -152.73451 31047 ft 501 kts 56°
2026-04-12 06:34 24.19428 -152.67082 31047 ft 501 kts 56°
2026-04-12 06:35 24.25115 -152.57458 31052 ft 502 kts 56°
2026-04-12 06:36 24.28910 -152.51034 31051 ft 502 kts 56°
2026-04-12 06:36 24.32696 -152.44614 31050 ft 502 kts 56°
2026-04-12 06:37 24.36472 -152.38177 31057 ft 502 kts 56°
2026-04-12 06:37 24.40249 -152.31743 31051 ft 501 kts 56°
2026-04-12 06:38 24.44021 -152.25306 31071 ft 501 kts 56°
2026-04-12 06:38 24.47786 -152.18866 31055 ft 501 kts 56°
2026-04-12 06:39 24.51554 -152.12433 31051 ft 501 kts 56°
2026-04-12 06:39 24.55318 -152.05995 31051 ft 500 kts 56°
2026-04-12 06:40 24.59066 -151.99564 31041 ft 500 kts 56°
2026-04-12 06:40 24.62816 -151.93118 31044 ft 500 kts 56°
2026-04-12 06:41 24.66551 -151.86720 31049 ft 500 kts 56°
2026-04-12 06:41 24.70317 -151.80230 31047 ft 500 kts 56°
2026-04-12 06:42 24.74020 -151.73829 31051 ft 499 kts 56°
2026-04-12 06:42 24.77781 -151.67336 31048 ft 499 kts 56°
2026-04-12 06:43 24.81485 -151.60944 31043 ft 499 kts 56°
2026-04-12 06:43 24.85209 -151.54502 31041 ft 499 kts 56°
2026-04-12 06:44 24.88938 -151.48053 31042 ft 499 kts 56°
2026-04-12 06:44 24.92648 -151.41613 31039 ft 498 kts 56°
2026-04-12 06:45 24.96355 -151.35149 31037 ft 498 kts 56°
2026-04-12 06:45 25.00062 -151.28705 31038 ft 498 kts 56°
2026-04-12 06:46 25.03775 -151.22246 31039 ft 498 kts 56°
2026-04-12 06:46 25.07476 -151.15781 31042 ft 498 kts 56°
2026-04-12 06:47 25.11171 -151.09326 31042 ft 498 kts 56°
2026-04-12 06:47 25.14862 -151.02866 31044 ft 498 kts 56°
2026-04-12 06:48 25.18559 -150.96397 31043 ft 498 kts 56°
2026-04-12 06:48 25.22249 -150.89928 31043 ft 497 kts 56°
2026-04-12 06:49 25.25927 -150.83465 31044 ft 497 kts 56°
2026-04-12 06:49 25.29606 -150.76999 31045 ft 497 kts 56°
2026-04-12 06:50 25.33277 -150.70523 31041 ft 497 kts 56°
2026-04-12 06:50 25.36919 -150.64086 31038 ft 497 kts 56°
2026-04-12 06:51 25.40590 -150.57600 31037 ft 497 kts 56°
2026-04-12 06:51 25.44254 -150.51119 31039 ft 497 kts 56°
2026-04-12 06:52 25.47918 -150.44631 31041 ft 497 kts 56°
2026-04-12 06:52 25.51585 -150.38139 31038 ft 497 kts 56°
2026-04-12 06:53 25.55239 -150.31650 31035 ft 497 kts 56°
2026-04-12 06:53 25.58894 -150.25147 31037 ft 497 kts 56°
2026-04-12 06:54 25.62538 -150.18639 31036 ft 497 kts 56°
2026-04-12 06:54 25.66182 -150.12135 31034 ft 497 kts 56°
2026-04-12 06:55 25.69833 -150.05637 31027 ft 497 kts 55°
2026-04-12 06:55 25.73478 -149.99127 31023 ft 497 kts 56°
2026-04-12 06:56 25.77115 -149.92602 31022 ft 497 kts 56°
2026-04-12 06:56 25.80744 -149.86081 31021 ft 497 kts 56°
2026-04-12 06:57 25.84359 -149.79599 31019 ft 497 kts 56°
2026-04-12 06:57 25.87992 -149.73075 31018 ft 497 kts 56°
2026-04-12 06:58 25.91610 -149.66542 31021 ft 496 kts 56°
2026-04-12 06:58 25.95221 -149.60011 31022 ft 496 kts 56°
2026-04-12 06:59 25.98833 -149.53489 31022 ft 496 kts 56°
2026-04-12 06:59 26.02450 -149.46953 31021 ft 496 kts 56°
2026-04-12 07:00 26.07857 -149.37165 31024 ft 495 kts 56°
2026-04-12 07:00 26.11450 -149.30630 31029 ft 495 kts 56°
2026-04-12 07:01 26.15047 -149.24104 31033 ft 494 kts 56°
2026-04-12 07:01 26.18632 -149.17575 31037 ft 494 kts 56°
2026-04-12 07:02 26.22204 -149.11043 31040 ft 493 kts 56°
2026-04-12 07:02 26.25784 -149.04518 31044 ft 493 kts 56°
2026-04-12 07:03 26.29348 -148.98006 31037 ft 492 kts 56°
2026-04-12 07:03 26.32897 -148.91502 31033 ft 491 kts 56°
2026-04-12 07:04 26.36455 -148.84988 31031 ft 491 kts 56°
2026-04-12 07:04 26.39999 -148.78483 31028 ft 490 kts 56°
2026-04-12 07:05 26.43524 -148.71975 31028 ft 490 kts 56°
2026-04-12 07:05 26.47055 -148.65467 31029 ft 490 kts 56°
2026-04-12 07:06 26.50593 -148.58964 31031 ft 490 kts 56°
2026-04-12 07:06 26.54120 -148.52451 31033 ft 489 kts 56°
2026-04-12 07:07 26.57636 -148.45943 31033 ft 488 kts 56°
2026-04-12 07:07 26.61117 -148.39491 31029 ft 488 kts 56°
2026-04-12 07:08 26.64613 -148.32994 31027 ft 488 kts 56°
2026-04-12 07:08 26.68109 -148.26495 31025 ft 488 kts 56°
2026-04-12 07:09 26.71039 -148.21049 31027 ft 487 kts 56°
2026-04-12 07:09 26.74501 -148.14601 31023 ft 487 kts 56°
2026-04-12 07:10 26.77984 -148.08102 31019 ft 487 kts 56°
2026-04-12 07:10 26.81463 -148.01600 31016 ft 487 kts 56°
2026-04-12 07:11 26.84934 -147.95108 31019 ft 485 kts 56°
2026-04-12 07:11 26.88403 -147.88623 31022 ft 484 kts 56°
2026-04-12 07:12 26.91851 -147.82143 31030 ft 484 kts 56°
2026-04-12 07:12 26.95286 -147.75676 31033 ft 483 kts 56°
2026-04-12 07:13 26.98722 -147.69206 31032 ft 483 kts 56°
2026-04-12 07:13 27.02158 -147.62741 31028 ft 482 kts 56°
2026-04-12 07:14 27.05592 -147.56262 31025 ft 482 kts 56°
2026-04-12 07:14 27.09010 -147.49809 31029 ft 482 kts 56°
2026-04-12 07:15 27.12432 -147.43326 31032 ft 482 kts 56°
2026-04-12 07:15 27.15819 -147.36899 31033 ft 481 kts 56°
2026-04-12 07:16 27.19226 -147.30424 31032 ft 481 kts 56°
2026-04-12 07:16 27.22632 -147.23961 31031 ft 481 kts 56°
2026-04-12 07:17 27.25848 -147.17352 31028 ft 482 kts 61°
2026-04-12 07:17 27.28736 -147.10534 31026 ft 483 kts 63°
2026-04-12 07:18 27.31556 -147.03686 31020 ft 483 kts 62°
2026-04-12 07:18 27.34443 -146.96883 31014 ft 482 kts 61°
2026-04-12 07:19 27.37381 -146.90101 31009 ft 482 kts 61°
2026-04-12 07:19 27.40310 -146.83319 31008 ft 482 kts 62°
2026-04-12 07:20 27.43222 -146.76513 31009 ft 482 kts 62°
2026-04-12 07:20 27.46131 -146.69704 31013 ft 483 kts 62°
2026-04-12 07:21 27.49037 -146.62898 31019 ft 483 kts 62°
2026-04-12 07:21 27.51939 -146.56080 31022 ft 483 kts 62°
2026-04-12 07:22 27.54838 -146.49251 31022 ft 482 kts 62°
2026-04-12 07:22 27.57725 -146.42429 31024 ft 483 kts 62°
2026-04-12 07:23 27.60614 -146.35613 31023 ft 482 kts 62°
2026-04-12 07:23 27.63504 -146.28781 31024 ft 482 kts 62°
2026-04-12 07:24 27.66388 -146.21961 31022 ft 482 kts 62°
2026-04-12 07:24 27.69266 -146.15131 31018 ft 482 kts 62°
2026-04-12 07:25 27.72126 -146.08347 31014 ft 481 kts 62°
2026-04-12 07:25 27.74996 -146.01518 31011 ft 481 kts 62°
2026-04-12 07:26 27.77858 -145.94684 31007 ft 481 kts 62°
2026-04-12 07:26 27.80719 -145.87862 31004 ft 481 kts 62°
2026-04-12 07:27 27.83586 -145.81027 31004 ft 481 kts 62°
2026-04-12 07:27 27.86440 -145.74186 31001 ft 481 kts 62°
2026-04-12 07:28 27.89291 -145.67338 31000 ft 481 kts 62°
2026-04-12 07:28 27.92138 -145.60486 31000 ft 481 kts 62°
2026-04-12 07:29 27.94975 -145.53642 31002 ft 481 kts 62°
2026-04-12 07:29 27.97816 -145.46794 31002 ft 481 kts 62°
2026-04-12 07:30 28.00653 -145.39928 31003 ft 481 kts 62°
2026-04-12 07:30 28.03490 -145.33073 31004 ft 481 kts 62°
2026-04-12 07:31 28.06320 -145.26196 31004 ft 482 kts 62°
2026-04-12 07:31 28.09145 -145.19326 31009 ft 482 kts 62°
2026-04-12 07:32 28.11978 -145.12448 31014 ft 481 kts 62°
2026-04-12 07:32 28.14807 -145.05573 31010 ft 482 kts 62°
2026-04-12 07:33 28.17626 -144.98679 31011 ft 482 kts 62°
2026-04-12 07:33 28.20434 -144.91780 31012 ft 482 kts 62°
2026-04-12 07:34 28.23245 -144.84892 31013 ft 482 kts 62°
2026-04-12 07:34 28.26058 -144.77989 31014 ft 482 kts 62°
2026-04-12 07:35 28.28853 -144.71090 31011 ft 481 kts 62°
2026-04-12 07:35 28.31656 -144.64193 31008 ft 481 kts 62°
2026-04-12 07:36 28.34445 -144.57340 31008 ft 481 kts 62°
2026-04-12 07:36 28.37237 -144.50450 31008 ft 481 kts 62°
2026-04-12 07:37 28.40023 -144.43543 31005 ft 481 kts 62°
2026-04-12 07:37 28.42806 -144.36647 31001 ft 480 kts 62°
2026-04-12 07:38 28.45578 -144.29737 30997 ft 480 kts 62°
2026-04-12 07:38 28.48351 -144.22831 30995 ft 480 kts 62°
2026-04-12 07:39 28.51122 -144.15913 30995 ft 480 kts 62°
2026-04-12 07:39 28.53882 -144.08993 30992 ft 481 kts 62°
2026-04-12 07:40 28.56648 -144.02072 30993 ft 480 kts 62°
2026-04-12 07:40 28.59403 -143.95169 30990 ft 480 kts 62°
2026-04-12 07:41 28.62158 -143.88246 30988 ft 480 kts 62°
2026-04-12 07:41 28.64891 -143.81369 30988 ft 480 kts 62°
2026-04-12 07:42 28.67640 -143.74432 30985 ft 480 kts 62°
2026-04-12 07:43 28.73124 -143.60577 30978 ft 479 kts 62°
2026-04-12 07:43 28.75863 -143.53656 30973 ft 479 kts 62°
2026-04-12 07:44 28.78599 -143.46721 30970 ft 479 kts 62°
2026-04-12 07:44 28.81321 -143.39789 30973 ft 479 kts 62°
2026-04-12 07:45 28.84035 -143.32843 30974 ft 480 kts 62°
2026-04-12 07:45 28.86756 -143.25892 30970 ft 480 kts 62°
2026-04-12 07:46 28.89475 -143.18937 30966 ft 480 kts 62°
2026-04-12 07:46 28.92194 -143.11984 30965 ft 480 kts 62°
2026-04-12 07:47 28.94911 -143.05013 30966 ft 480 kts 62°
2026-04-12 07:47 28.97615 -142.98040 30967 ft 480 kts 62°
2026-04-12 07:48 29.00326 -142.91063 30965 ft 481 kts 62°
2026-04-12 07:48 29.03008 -142.84118 30965 ft 481 kts 62°
2026-04-12 07:49 29.05704 -142.77126 30966 ft 481 kts 62°
2026-04-12 07:49 29.08405 -142.70147 30967 ft 480 kts 62°
2026-04-12 07:50 29.11098 -142.63161 30965 ft 480 kts 62°
2026-04-12 07:50 29.13786 -142.56173 30965 ft 480 kts 62°
2026-04-12 07:51 29.16470 -142.49177 30965 ft 480 kts 62°
2026-04-12 07:51 29.19147 -142.42168 30961 ft 480 kts 62°
2026-04-12 07:52 29.21825 -142.35163 30962 ft 481 kts 62°
2026-04-12 07:52 29.24510 -142.28150 30964 ft 481 kts 62°
2026-04-12 07:53 29.27181 -142.21138 30961 ft 481 kts 62°
2026-04-12 07:53 29.29852 -142.14110 30962 ft 481 kts 62°
2026-04-12 07:54 29.32516 -142.07075 30965 ft 481 kts 62°
2026-04-12 07:54 29.35175 -142.00044 30965 ft 481 kts 62°
2026-04-12 07:55 29.37813 -141.93048 30964 ft 481 kts 62°
2026-04-12 07:55 29.40465 -141.86014 30962 ft 481 kts 62°
2026-04-12 07:56 29.43113 -141.78975 30963 ft 481 kts 62°
2026-04-12 07:56 29.45756 -141.71948 30960 ft 481 kts 62°
2026-04-12 07:57 29.48413 -141.64895 30958 ft 481 kts 62°
2026-04-12 07:57 29.51048 -141.57839 30954 ft 481 kts 63°
2026-04-12 07:58 29.53674 -141.50787 30945 ft 480 kts 62°
2026-04-12 07:58 29.55864 -141.44932 30943 ft 480 kts 62°
2026-04-12 07:59 29.58498 -141.37883 30944 ft 480 kts 62°
2026-04-12 07:59 29.61119 -141.30820 30939 ft 480 kts 63°
2026-04-12 08:00 29.63729 -141.23737 30945 ft 481 kts 63°
2026-04-12 08:00 29.66345 -141.16666 30949 ft 481 kts 62°
2026-04-12 08:01 29.68969 -141.09596 30937 ft 481 kts 62°
2026-04-12 08:01 29.71593 -141.02511 30933 ft 481 kts 63°
2026-04-12 08:02 29.74193 -140.95421 30936 ft 481 kts 63°
2026-04-12 08:02 29.76770 -140.88380 30926 ft 481 kts 63°
2026-04-12 08:03 29.79361 -140.81276 30927 ft 481 kts 63°
2026-04-12 08:03 29.81960 -140.74196 30924 ft 481 kts 63°
2026-04-12 08:04 29.84557 -140.67102 30920 ft 481 kts 63°
2026-04-12 08:04 29.87143 -140.59991 30920 ft 481 kts 63°
2026-04-12 08:05 29.89714 -140.52879 30919 ft 481 kts 63°
2026-04-12 08:05 29.92297 -140.45766 30917 ft 481 kts 63°
2026-04-12 08:06 29.94880 -140.38649 30914 ft 481 kts 63°
2026-04-12 08:06 29.97343 -140.31463 30917 ft 482 kts 65°
2026-04-12 08:07 29.99684 -140.24204 30916 ft 483 kts 65°
2026-04-12 08:07 30.02025 -140.16939 30917 ft 483 kts 65°
2026-04-12 08:08 30.04396 -140.09675 30918 ft 483 kts 65°
2026-04-12 08:08 30.06771 -140.02424 30917 ft 483 kts 65°
2026-04-12 08:09 30.09137 -139.95182 30916 ft 483 kts 65°
2026-04-12 08:09 30.11498 -139.87909 30915 ft 483 kts 65°
2026-04-12 08:10 30.13856 -139.80649 30911 ft 483 kts 65°
2026-04-12 08:10 30.16197 -139.73386 30909 ft 483 kts 65°
2026-04-12 08:11 30.18533 -139.66163 30904 ft 483 kts 65°
2026-04-12 08:11 30.20881 -139.58894 30904 ft 483 kts 65°
2026-04-12 08:12 30.23222 -139.51600 30903 ft 483 kts 65°
2026-04-12 08:12 30.25555 -139.44320 30904 ft 484 kts 65°
2026-04-12 08:13 30.27889 -139.37024 30904 ft 484 kts 65°
2026-04-12 08:13 30.30228 -139.29720 30904 ft 484 kts 65°
2026-04-12 08:14 30.32550 -139.22417 30907 ft 484 kts 65°
2026-04-12 08:14 30.34869 -139.15106 30906 ft 484 kts 65°
2026-04-12 08:15 30.37196 -139.07795 30907 ft 484 kts 65°
2026-04-12 08:15 30.39515 -139.00483 30905 ft 484 kts 65°
2026-04-12 08:16 30.41829 -138.93160 30899 ft 484 kts 65°
2026-04-12 08:16 30.44138 -138.85832 30898 ft 484 kts 66°
2026-04-12 08:17 30.46440 -138.78500 30898 ft 484 kts 66°
2026-04-12 08:17 30.48721 -138.71224 30898 ft 484 kts 66°
2026-04-12 08:18 30.51016 -138.63875 30897 ft 484 kts 66°
2026-04-12 08:18 30.53311 -138.56537 30898 ft 484 kts 66°
2026-04-12 08:19 30.55606 -138.49194 30895 ft 484 kts 66°
2026-04-12 08:19 30.57895 -138.41850 30896 ft 484 kts 66°
2026-04-12 08:20 30.60169 -138.34493 30898 ft 484 kts 66°
2026-04-12 08:20 30.62441 -138.27145 30898 ft 484 kts 66°
2026-04-12 08:21 30.64720 -138.19785 30896 ft 484 kts 66°
2026-04-12 08:21 30.66985 -138.12425 30887 ft 484 kts 66°
2026-04-12 08:22 30.69245 -138.05061 30883 ft 484 kts 66°
2026-04-12 08:22 30.71491 -137.97737 30894 ft 484 kts 66°
2026-04-12 08:23 30.73763 -137.90309 30881 ft 485 kts 66°
2026-04-12 08:23 30.76023 -137.82924 30881 ft 485 kts 66°
2026-04-12 08:24 30.78260 -137.75577 30881 ft 486 kts 66°
2026-04-12 08:24 30.80503 -137.68174 30881 ft 486 kts 66°
2026-04-12 08:25 30.82758 -137.60750 30889 ft 486 kts 66°
2026-04-12 08:25 30.85002 -137.53334 30886 ft 487 kts 66°
2026-04-12 08:26 30.87249 -137.45884 30892 ft 487 kts 66°
2026-04-12 08:26 30.89487 -137.38454 30884 ft 487 kts 66°
2026-04-12 08:27 30.91726 -137.30996 30875 ft 488 kts 66°
2026-04-12 08:27 30.93963 -137.23526 30878 ft 488 kts 67°
2026-04-12 08:28 30.96189 -137.16067 30871 ft 488 kts 66°
2026-04-12 08:28 30.98419 -137.08584 30870 ft 488 kts 67°
2026-04-12 08:29 31.00644 -137.01106 30875 ft 489 kts 67°
2026-04-12 08:29 31.02868 -136.93608 30869 ft 489 kts 67°
2026-04-12 08:30 31.05084 -136.86104 30872 ft 490 kts 67°
2026-04-12 08:30 31.07307 -136.78585 30872 ft 490 kts 67°
2026-04-12 08:31 31.09523 -136.71069 30872 ft 490 kts 67°
2026-04-12 08:31 31.11736 -136.63541 30871 ft 490 kts 67°
2026-04-12 08:32 31.13946 -136.56009 30870 ft 491 kts 67°
2026-04-12 08:32 31.16139 -136.48520 30869 ft 491 kts 67°
2026-04-12 08:33 31.18335 -136.40972 30864 ft 491 kts 67°
2026-04-12 08:33 31.20529 -136.33407 30863 ft 492 kts 67°
2026-04-12 08:34 31.22725 -136.25843 30872 ft 492 kts 67°
2026-04-12 08:34 31.24921 -136.18268 30870 ft 492 kts 67°
2026-04-12 08:35 31.27113 -136.10690 30866 ft 492 kts 67°
2026-04-12 08:35 31.29300 -136.03104 30864 ft 492 kts 67°
2026-04-12 08:36 31.31483 -135.95510 30862 ft 493 kts 67°
2026-04-12 08:36 31.33659 -135.87901 30863 ft 494 kts 67°
2026-04-12 08:37 31.35830 -135.80291 30865 ft 494 kts 68°
2026-04-12 08:37 31.38004 -135.72658 30866 ft 494 kts 68°
2026-04-12 08:38 31.40181 -135.65029 30863 ft 495 kts 67°
2026-04-12 08:38 31.42356 -135.57382 30866 ft 495 kts 68°
2026-04-12 08:39 31.44519 -135.49731 30866 ft 496 kts 68°
2026-04-12 08:39 31.46682 -135.42052 30865 ft 496 kts 68°
2026-04-12 08:40 31.48847 -135.34388 30868 ft 496 kts 68°
2026-04-12 08:40 31.51005 -135.26709 30867 ft 496 kts 68°
2026-04-12 08:41 31.53150 -135.19020 30869 ft 496 kts 68°
2026-04-12 08:41 31.55295 -135.11328 30863 ft 497 kts 68°
2026-04-12 08:42 31.57440 -135.03626 30857 ft 497 kts 68°
2026-04-12 08:42 31.59574 -134.95966 30858 ft 497 kts 68°
2026-04-12 08:43 31.61712 -134.88251 30854 ft 497 kts 68°
2026-04-12 08:43 31.63848 -134.80525 30857 ft 498 kts 68°
2026-04-12 08:44 31.65999 -134.72744 30854 ft 499 kts 68°
2026-04-12 08:44 31.68124 -134.65040 30855 ft 499 kts 68°
2026-04-12 08:45 31.70247 -134.57293 30852 ft 499 kts 68°
2026-04-12 08:45 31.72362 -134.49528 30849 ft 499 kts 68°
2026-04-12 08:46 31.74480 -134.41750 30841 ft 500 kts 68°
2026-04-12 08:47 31.77657 -134.30072 30837 ft 500 kts 68°
2026-04-12 08:47 31.79770 -134.22272 30838 ft 501 kts 68°
2026-04-12 08:48 31.81529 -134.15780 30840 ft 502 kts 68°
2026-04-12 08:48 31.83644 -134.07964 30842 ft 502 kts 68°
2026-04-12 08:49 31.85753 -134.00125 30844 ft 503 kts 68°
2026-04-12 08:49 31.87856 -133.92280 30845 ft 503 kts 68°
2026-04-12 08:50 31.89952 -133.84427 30847 ft 503 kts 69°
2026-04-12 08:50 31.92043 -133.76567 30845 ft 503 kts 69°
2026-04-12 08:51 31.94134 -133.68721 30845 ft 502 kts 69°
2026-04-12 08:51 31.96215 -133.60874 30844 ft 502 kts 69°
2026-04-12 08:52 31.98288 -133.53011 30841 ft 502 kts 69°
2026-04-12 08:52 32.00347 -133.45207 30837 ft 503 kts 69°
2026-04-12 08:53 32.02430 -133.37276 30833 ft 503 kts 68°
2026-04-12 08:53 32.04486 -133.29438 30835 ft 504 kts 68°
2026-04-12 08:54 32.06556 -133.21546 30831 ft 504 kts 68°
2026-04-12 08:54 32.08627 -133.13632 30829 ft 505 kts 68°
2026-04-12 08:55 32.10687 -133.05707 30828 ft 506 kts 69°
2026-04-12 08:55 32.12733 -132.97764 30831 ft 507 kts 69°
2026-04-12 08:56 32.14790 -132.89806 30829 ft 507 kts 68°
2026-04-12 08:56 32.16851 -132.81830 30826 ft 508 kts 69°
2026-04-12 08:57 32.18913 -132.73847 30825 ft 509 kts 69°
2026-04-12 08:57 32.20967 -132.65843 30824 ft 510 kts 69°
2026-04-12 08:58 32.23009 -132.57824 30824 ft 510 kts 69°
2026-04-12 08:58 32.25050 -132.49801 30826 ft 510 kts 69°
2026-04-12 08:59 32.27079 -132.41817 30822 ft 511 kts 69°
2026-04-12 08:59 32.29129 -132.33776 30823 ft 512 kts 69°
2026-04-12 09:00 32.31172 -132.25721 30826 ft 512 kts 69°
2026-04-12 09:00 32.33202 -132.17646 30827 ft 512 kts 69°
2026-04-12 09:01 32.35223 -132.09568 30829 ft 513 kts 69°
2026-04-12 09:01 32.37245 -132.01494 30830 ft 513 kts 69°
2026-04-12 09:02 32.39262 -131.93396 30829 ft 513 kts 69°
2026-04-12 09:02 32.41279 -131.85299 30828 ft 513 kts 69°
2026-04-12 09:03 32.43290 -131.77214 30825 ft 513 kts 69°
2026-04-12 09:03 32.45298 -131.69101 30821 ft 513 kts 69°
2026-04-12 09:04 32.47299 -131.60979 30819 ft 513 kts 69°
2026-04-12 09:04 32.49292 -131.52866 30821 ft 514 kts 69°
2026-04-12 09:05 32.51282 -131.44731 30820 ft 514 kts 69°
2026-04-12 09:05 32.53269 -131.36583 30814 ft 515 kts 69°
2026-04-12 09:06 32.55246 -131.28487 30817 ft 515 kts 69°
2026-04-12 09:06 32.57234 -131.20330 30818 ft 515 kts 69°
2026-04-12 09:07 32.59207 -131.12170 30898 ft 516 kts 69°
2026-04-12 09:07 32.61184 -131.03974 30907 ft 517 kts 69°
2026-04-12 09:08 32.63152 -130.95773 30905 ft 517 kts 69°
2026-04-12 09:08 32.65122 -130.87584 30898 ft 517 kts 69°
2026-04-12 09:09 32.67086 -130.79380 30896 ft 517 kts 69°
2026-04-12 09:09 32.69043 -130.71165 30886 ft 517 kts 69°
2026-04-12 09:10 32.71001 -130.62932 30896 ft 518 kts 69°
2026-04-12 09:10 32.72947 -130.54709 30896 ft 518 kts 69°
2026-04-12 09:11 32.74883 -130.46483 30895 ft 518 kts 69°
2026-04-12 09:11 32.76821 -130.38284 30896 ft 518 kts 69°
2026-04-12 09:12 32.78772 -130.29989 30897 ft 518 kts 69°
2026-04-12 09:12 32.80692 -130.21794 30900 ft 518 kts 70°
2026-04-12 09:13 32.82609 -130.13551 30898 ft 518 kts 70°
2026-04-12 09:13 32.84520 -130.05293 30886 ft 518 kts 70°
2026-04-12 09:14 32.86432 -129.97025 30900 ft 519 kts 70°
2026-04-12 09:14 32.88345 -129.88733 30884 ft 520 kts 70°
2026-04-12 09:15 32.90255 -129.80407 30896 ft 521 kts 70°
2026-04-12 09:15 32.92160 -129.72088 30894 ft 521 kts 70°
2026-04-12 09:16 32.94071 -129.63773 30896 ft 522 kts 70°
2026-04-12 09:16 32.95973 -129.55439 30883 ft 522 kts 70°
2026-04-12 09:17 32.97866 -129.47100 30883 ft 522 kts 70°
2026-04-12 09:17 32.99748 -129.38741 30880 ft 523 kts 70°
2026-04-12 09:18 33.01636 -129.30362 30877 ft 524 kts 70°
2026-04-12 09:18 33.03525 -129.21982 30879 ft 525 kts 70°
2026-04-12 09:19 33.05406 -129.13573 30888 ft 525 kts 70°
2026-04-12 09:19 33.07279 -129.05166 30882 ft 525 kts 70°
2026-04-12 09:20 33.10082 -128.92585 30885 ft 525 kts 70°
2026-04-12 09:21 33.12883 -128.79943 30935 ft 527 kts 70°
2026-04-12 09:21 33.14744 -128.71483 30949 ft 528 kts 71°
2026-04-12 09:22 33.16600 -128.62995 30948 ft 528 kts 71°
2026-04-12 09:22 33.18455 -128.54506 30937 ft 529 kts 71°
2026-04-12 09:23 33.20312 -128.46009 30941 ft 529 kts 71°
2026-04-12 09:23 33.22151 -128.37507 30940 ft 529 kts 71°
2026-04-12 09:24 33.23989 -128.28992 30933 ft 529 kts 71°
2026-04-12 09:24 33.25810 -128.20532 30930 ft 529 kts 71°
2026-04-12 09:25 33.27645 -128.12005 30928 ft 530 kts 71°
2026-04-12 09:25 33.29473 -128.03468 30926 ft 530 kts 71°
2026-04-12 09:26 33.31296 -127.94942 30921 ft 530 kts 71°
2026-04-12 09:26 33.33110 -127.86390 30918 ft 531 kts 71°
2026-04-12 09:27 33.34921 -127.77818 30918 ft 532 kts 71°
2026-04-12 09:27 33.36719 -127.69235 30920 ft 532 kts 71°
2026-04-12 09:28 33.38529 -127.60643 30920 ft 533 kts 71°
2026-04-12 09:28 33.40339 -127.52046 30922 ft 533 kts 71°
2026-04-12 09:29 33.42137 -127.43428 30921 ft 534 kts 72°
2026-04-12 09:29 33.43927 -127.34818 30932 ft 534 kts 72°
2026-04-12 09:30 33.45710 -127.26178 30933 ft 534 kts 72°
2026-04-12 09:30 33.47481 -127.17557 30947 ft 533 kts 72°
2026-04-12 09:31 33.49254 -127.08932 30950 ft 533 kts 72°
2026-04-12 09:31 33.51027 -127.00294 30952 ft 533 kts 72°
2026-04-12 09:32 33.52786 -126.91659 30947 ft 534 kts 72°
2026-04-12 09:32 33.54531 -126.83067 30946 ft 534 kts 72°
2026-04-12 09:33 33.56285 -126.74412 30947 ft 535 kts 72°
2026-04-12 09:33 33.58024 -126.65741 30946 ft 535 kts 72°
2026-04-12 09:34 33.59765 -126.57058 30942 ft 535 kts 73°
2026-04-12 09:34 33.61508 -126.48379 30937 ft 536 kts 73°
2026-04-12 09:35 33.63243 -126.39675 30939 ft 537 kts 73°
2026-04-12 09:35 33.64970 -126.30948 30938 ft 538 kts 73°
2026-04-12 09:36 33.66693 -126.22209 30935 ft 538 kts 73°
2026-04-12 09:36 33.68420 -126.13462 30937 ft 539 kts 73°
2026-04-12 09:37 33.70140 -126.04693 30940 ft 540 kts 73°
2026-04-12 09:37 33.71852 -125.95911 30949 ft 540 kts 73°
2026-04-12 09:38 33.73565 -125.87130 30944 ft 540 kts 73°
2026-04-12 09:38 33.75271 -125.78341 30942 ft 540 kts 73°
2026-04-12 09:39 33.76676 -125.71040 30946 ft 540 kts 73°
2026-04-12 09:39 33.78645 -125.60816 30941 ft 540 kts 73°
2026-04-12 09:40 33.80327 -125.52020 30947 ft 540 kts 73°
2026-04-12 09:40 33.82001 -125.43228 30937 ft 539 kts 74°
2026-04-12 09:41 33.83404 -125.35861 30940 ft 539 kts 74°
2026-04-12 09:41 33.85053 -125.27123 30942 ft 539 kts 74°
2026-04-12 09:42 33.86703 -125.18329 30939 ft 539 kts 74°
2026-04-12 09:42 33.88359 -125.09524 30940 ft 539 kts 74°
2026-04-12 09:43 33.91636 -124.91939 30946 ft 538 kts 75°
2026-04-12 09:44 33.93281 -124.83131 30932 ft 539 kts 75°
2026-04-12 09:44 33.94953 -124.74343 30928 ft 539 kts 74°
2026-04-12 09:45 33.96622 -124.65541 30929 ft 540 kts 75°
2026-04-12 09:45 33.98269 -124.56712 30932 ft 540 kts 75°
2026-04-12 09:46 33.99909 -124.47879 30924 ft 541 kts 75°
2026-04-12 09:46 34.01558 -124.39019 30924 ft 542 kts 75°
2026-04-12 09:47 34.03204 -124.30149 30923 ft 543 kts 75°
2026-04-12 09:47 34.04843 -124.21260 30919 ft 544 kts 75°
2026-04-12 09:48 34.06461 -124.12417 30920 ft 544 kts 75°
2026-04-12 09:48 34.08088 -124.03499 30914 ft 545 kts 75°
2026-04-12 09:49 34.09714 -123.94561 30913 ft 545 kts 76°
2026-04-12 09:49 34.11332 -123.85631 30914 ft 545 kts 76°
2026-04-12 09:50 34.12941 -123.76684 30926 ft 546 kts 76°
2026-04-12 09:50 34.14542 -123.67728 30925 ft 545 kts 76°
2026-04-12 09:51 34.16137 -123.58785 30925 ft 544 kts 76°
2026-04-12 09:51 34.17728 -123.49848 30920 ft 544 kts 76°
2026-04-12 09:52 34.19317 -123.40921 30921 ft 544 kts 76°
2026-04-12 09:52 34.20878 -123.32044 30921 ft 543 kts 76°
2026-04-12 09:53 34.22438 -123.23117 30973 ft 543 kts 76°
2026-04-12 09:53 34.23995 -123.14189 30977 ft 543 kts 76°
2026-04-12 09:54 34.24719 -123.05143 30978 ft 541 kts 94°
2026-04-12 09:54 34.24306 -122.96066 30982 ft 541 kts 95°
2026-04-12 09:55 34.23913 -122.86985 30980 ft 541 kts 95°
2026-04-12 09:55 34.23519 -122.77917 30984 ft 540 kts 95°
2026-04-12 09:56 34.23090 -122.68870 30982 ft 540 kts 95°
2026-04-12 09:56 34.22660 -122.59816 30980 ft 540 kts 95°
2026-04-12 09:57 34.22235 -122.50768 30979 ft 540 kts 95°
2026-04-12 09:57 34.21802 -122.41702 30976 ft 540 kts 96°
2026-04-12 09:58 34.21359 -122.32646 30977 ft 540 kts 96°
2026-04-12 09:58 34.20902 -122.23574 30978 ft 541 kts 96°
2026-04-12 09:59 34.20445 -122.14573 30981 ft 541 kts 96°
2026-04-12 09:59 34.19986 -122.05507 30978 ft 541 kts 96°
2026-04-12 10:00 34.19520 -121.96419 30976 ft 542 kts 96°
2026-04-12 10:00 34.19039 -121.87346 30977 ft 542 kts 96°
2026-04-12 10:01 34.18544 -121.78258 30982 ft 542 kts 96°
2026-04-12 10:01 34.18045 -121.69183 30990 ft 541 kts 96°
2026-04-12 10:02 34.17548 -121.60106 30993 ft 541 kts 96°
2026-04-12 10:02 34.17047 -121.51048 31003 ft 540 kts 96°
2026-04-12 10:03 34.16537 -121.42014 31000 ft 539 kts 97°
2026-04-12 10:03 34.16018 -121.32975 31004 ft 539 kts 97°
2026-04-12 10:04 34.15500 -121.24021 31004 ft 538 kts 97°
2026-04-12 10:04 34.14981 -121.15036 31004 ft 537 kts 97°
2026-04-12 10:05 34.14447 -121.05979 30999 ft 548 kts 97°
2026-04-12 10:05 34.14047 -120.96695 30631 ft 557 kts 89°
2026-04-12 10:05 34.14381 -120.92047 30058 ft 554 kts 85°
2026-04-12 10:06 34.14768 -120.87438 29537 ft 549 kts 85°
2026-04-12 10:06 34.15152 -120.82887 29028 ft 543 kts 85°
2026-04-12 10:06 34.15529 -120.78368 28532 ft 538 kts 85°
2026-04-12 10:06 34.15895 -120.73893 28048 ft 533 kts 86°
2026-04-12 10:07 34.16248 -120.69469 27568 ft 527 kts 86°
2026-04-12 10:07 34.16593 -120.65087 27076 ft 522 kts 86°
2026-04-12 10:07 34.16935 -120.60738 26601 ft 517 kts 86°
2026-04-12 10:07 34.17273 -120.56449 26096 ft 512 kts 87°
2026-04-12 10:08 34.17608 -120.52181 25596 ft 507 kts 87°
2026-04-12 10:08 34.17942 -120.47965 25110 ft 503 kts 87°
2026-04-12 10:08 34.18274 -120.43788 24626 ft 498 kts 87°
2026-04-12 10:08 34.18598 -120.39692 24139 ft 493 kts 88°
2026-04-12 10:09 34.18920 -120.35598 23627 ft 488 kts 88°
2026-04-12 10:09 34.19231 -120.31535 23129 ft 483 kts 88°
2026-04-12 10:09 34.19478 -120.27506 22635 ft 478 kts 90°
2026-04-12 10:09 34.19645 -120.23522 22139 ft 472 kts 91°
2026-04-12 10:10 34.19762 -120.19578 21644 ft 467 kts 92°
2026-04-12 10:10 34.19862 -120.15676 21143 ft 463 kts 92°
2026-04-12 10:10 34.19967 -120.11816 20647 ft 458 kts 92°
2026-04-12 10:10 34.20086 -120.07987 20168 ft 454 kts 92°
2026-04-12 10:11 34.20181 -120.04223 19925 ft 442 kts 94°
2026-04-12 10:11 34.20195 -120.00567 19730 ft 430 kts 95°
2026-04-12 10:11 34.20148 -119.96978 19326 ft 425 kts 96°
2026-04-12 10:11 34.20069 -119.93439 18963 ft 419 kts 97°
2026-04-12 10:12 34.19984 -119.89942 18570 ft 415 kts 97°
2026-04-12 10:12 34.19907 -119.86481 18277 ft 410 kts 96°
2026-04-12 10:12 34.19844 -119.83049 17989 ft 407 kts 96°
2026-04-12 10:12 34.19791 -119.79645 17703 ft 405 kts 96°
2026-04-12 10:13 34.19743 -119.76294 17433 ft 403 kts 96°
2026-04-12 10:13 34.19700 -119.72875 17112 ft 401 kts 96°
2026-04-12 10:13 34.19658 -119.69569 16835 ft 398 kts 96°
2026-04-12 10:13 34.19613 -119.66236 16549 ft 396 kts 96°
2026-04-12 10:14 34.19561 -119.62873 16263 ft 393 kts 96°
2026-04-12 10:14 34.19508 -119.59626 15988 ft 391 kts 96°
2026-04-12 10:14 34.19455 -119.56352 15710 ft 389 kts 96°
2026-04-12 10:14 34.19401 -119.53102 15435 ft 386 kts 96°
2026-04-12 10:15 34.19347 -119.49857 15166 ft 384 kts 96°
2026-04-12 10:15 34.19295 -119.46637 14894 ft 382 kts 96°
2026-04-12 10:15 34.19239 -119.43438 14627 ft 381 kts 96°
2026-04-12 10:15 34.19183 -119.40256 14349 ft 378 kts 96°
2026-04-12 10:16 34.19130 -119.37095 14072 ft 374 kts 96°
2026-04-12 10:16 34.19075 -119.33947 13771 ft 374 kts 96°
2026-04-12 10:16 34.19019 -119.30832 13384 ft 371 kts 96°
2026-04-12 10:16 34.18964 -119.27718 13022 ft 369 kts 96°
2026-04-12 10:17 34.18915 -119.24637 12661 ft 366 kts 96°
2026-04-12 10:17 34.18866 -119.21561 12307 ft 365 kts 96°
2026-04-12 10:17 34.18819 -119.18512 11950 ft 361 kts 96°
2026-04-12 10:17 34.18768 -119.15487 11596 ft 359 kts 96°
2026-04-12 10:18 34.18718 -119.12489 11253 ft 355 kts 96°
2026-04-12 10:18 34.18669 -119.09563 11102 ft 343 kts 95°
2026-04-12 10:18 34.18465 -119.06756 10953 ft 328 kts 107°
2026-04-12 10:18 34.17792 -119.04195 10701 ft 313 kts 121°
2026-04-12 10:19 34.16864 -119.01840 10452 ft 310 kts 121°
2026-04-12 10:19 34.15945 -118.99502 10200 ft 307 kts 121°
2026-04-12 10:19 34.15037 -118.97178 9951 ft 305 kts 120°
2026-04-12 10:19 34.14153 -118.94911 10005 ft 289 kts 120°
2026-04-12 10:20 34.13325 -118.92773 9987 ft 275 kts 120°
2026-04-12 10:20 34.12516 -118.90699 9991 ft 272 kts 120°
2026-04-12 10:20 34.11707 -118.88643 9991 ft 271 kts 120°
2026-04-12 10:20 34.10908 -118.86614 9986 ft 271 kts 120°
2026-04-12 10:21 34.10103 -118.84562 9982 ft 271 kts 120°
2026-04-12 10:21 34.09296 -118.82508 9980 ft 270 kts 120°
2026-04-12 10:21 34.08491 -118.80461 9990 ft 271 kts 120°
2026-04-12 10:21 34.07683 -118.78406 9990 ft 271 kts 120°
2026-04-12 10:22 34.06877 -118.76359 9991 ft 271 kts 120°
2026-04-12 10:22 34.06072 -118.74310 9957 ft 271 kts 120°
2026-04-12 10:22 34.05271 -118.72257 9835 ft 270 kts 120°
2026-04-12 10:22 34.04474 -118.70213 9723 ft 269 kts 119°
2026-04-12 10:23 34.03676 -118.68175 9615 ft 268 kts 119°
2026-04-12 10:23 34.03005 -118.66079 9510 ft 270 kts 107°
2026-04-12 10:23 34.02724 -118.63845 9408 ft 271 kts 98°
2026-04-12 10:23 34.02524 -118.61591 9296 ft 269 kts 98°
2026-04-12 10:24 34.02322 -118.59367 9191 ft 267 kts 98°
2026-04-12 10:24 34.02115 -118.57142 9079 ft 266 kts 98°
2026-04-12 10:24 34.01906 -118.54942 8970 ft 265 kts 98°
2026-04-12 10:24 34.01691 -118.52725 8599 ft 266 kts 98°
2026-04-12 10:25 34.01481 -118.50543 8259 ft 259 kts 98°
2026-04-12 10:25 34.01276 -118.48398 7931 ft 257 kts 98°
2026-04-12 10:25 34.01093 -118.46258 7608 ft 255 kts 92°
2026-04-12 10:25 34.01289 -118.44158 7292 ft 254 kts 79°
2026-04-12 10:26 34.01656 -118.42065 6965 ft 252 kts 79°
2026-04-12 10:26 34.02013 -118.40002 6660 ft 252 kts 79°
2026-04-12 10:26 34.02363 -118.37972 6344 ft 246 kts 79°
2026-04-12 10:26 34.02708 -118.35961 5991 ft 243 kts 79°
2026-04-12 10:27 34.03046 -118.33990 5671 ft 237 kts 79°
2026-04-12 10:27 34.03373 -118.32110 5513 ft 224 kts 79°
2026-04-12 10:27 34.03688 -118.30280 5202 ft 222 kts 79°
2026-04-12 10:27 34.03997 -118.28468 4886 ft 220 kts 79°
2026-04-12 10:28 34.04201 -118.27278 4668 ft 219 kts 79°